Weather History for Dalton, GA

Change the Weather History Date:

Thursday, April 11, 2013

  Actual Average Record
Temperature  
Mean Temperature 69 °F -  
Max Temperature 78 °F 69 °F 87 °F (1999)
Min Temperature 60 °F 42 °F 26 °F (1960)
Cooling Degree Days 4    
Growing Degree Days 19 (Base 50)    
Moisture  
Dew Point 59 °F    
Average Humidity 73    
Maximum Humidity 100    
Minimum Humidity 54    
Precipitation  
Precipitation 0.04 in - - ()
Sea Level Pressure  
Sea Level Pressure 29.82 in    
Wind  
Wind Speed 5 mph (SSE)    
Max Wind Speed 14 mph    
Max Gust Speed 26 mph    
Visibility 10 miles    
Events Rain , Thunderstorm    
Averages and records for this station are not official NWS values.
T = Trace of Precipitation, MM = Missing Value Source: NWS Daily Summary

Daily Weather History Graph

Daily Weather History Graph

Search for Another Location

Airport:

Trip Planner

Search our weather history database for the weather conditions in past years. The results will help you decide how hot, cold, wet, or windy it might be!

Date:

Astronomy

Apr. 11, 2013 Rise Set
Actual Time 7:12 AM EDT 8:08 PM EDT
Civil Twilight 6:46 AM EDT 8:34 PM EDT
Nautical Twilight 6:16 AM EDT 9:05 PM EDT
Astronomical Twilight 5:44 AM EDT 9:36 PM EDT
Moon 7:47 AM EDT (4/11) 9:37 PM EDT (4/11)
Length of Visible Light 13h 47m
Length of Day
12h 56m
New Moon, 2% of the Moon is Illuminated
Apr 11
New Moon
Apr 18
First Quarter
Apr 25
Full
May 2
Last Quarter
May 9
New

Hourly Weather History & Observations

Time (EDT) Temp. Dew Point Humidity Pressure Visibility Wind Dir Wind Speed Gust Speed Precip Events Conditions
12:15 AM 69.8 °F 55.4 °F 60% 29.92 in 10.0 mi SSE 5.8 mph - N/A   Clear
12:35 AM 69.8 °F 55.4 °F 60% 29.92 in 10.0 mi SSE 4.6 mph - N/A   Clear
12:55 AM 69.8 °F 55.4 °F 60% 29.92 in 10.0 mi SSE 3.5 mph - N/A   Clear
1:15 AM 68.0 °F 55.4 °F 64% 29.92 in 10.0 mi Calm Calm - N/A   Clear
1:35 AM 68.0 °F 55.4 °F 64% 29.92 in 10.0 mi SSE 3.5 mph - N/A   Clear
1:55 AM 68.0 °F 55.4 °F 64% 29.92 in 10.0 mi Calm Calm - N/A   Clear
2:15 AM 68.0 °F 55.4 °F 64% 29.92 in 10.0 mi SSE 3.5 mph - N/A   Clear
2:35 AM 66.2 °F 55.4 °F 68% 29.91 in 10.0 mi Calm Calm - N/A   Clear
2:55 AM 64.4 °F 55.4 °F 73% 29.91 in 10.0 mi Calm Calm - N/A   Clear
3:15 AM 64.4 °F 55.4 °F 73% 29.92 in 10.0 mi Calm Calm - N/A   Scattered Clouds
3:35 AM 64.4 °F 55.4 °F 73% 29.90 in 10.0 mi SSE 3.5 mph - N/A   Mostly Cloudy
3:55 AM 64.4 °F 55.4 °F 73% 29.90 in 10.0 mi SSE 4.6 mph - N/A   Mostly Cloudy
4:15 AM 64.4 °F 55.4 °F 73% 29.90 in 10.0 mi South 4.6 mph - N/A   Scattered Clouds
4:35 AM 64.4 °F 55.4 °F 73% 29.90 in 10.0 mi SSE 3.5 mph - N/A   Mostly Cloudy
4:55 AM 64.4 °F 55.4 °F 73% 29.90 in 10.0 mi SSE 3.5 mph - N/A   Mostly Cloudy
5:15 AM 64.4 °F 55.4 °F 73% 29.90 in 10.0 mi SSE 3.5 mph - N/A   Scattered Clouds
5:35 AM 64.4 °F 55.4 °F 73% 29.90 in 10.0 mi SSE 3.5 mph - N/A   Scattered Clouds
5:55 AM 64.4 °F 55.4 °F 73% 29.90 in 10.0 mi Calm Calm - N/A   Mostly Cloudy
6:15 AM 62.6 °F 55.4 °F 77% 29.90 in 10.0 mi Calm Calm - N/A   Scattered Clouds
6:35 AM 60.8 °F 55.4 °F 82% 29.90 in 10.0 mi Calm Calm - N/A   Clear
6:55 AM 62.6 °F 55.4 °F 77% 29.91 in 10.0 mi Calm Calm - N/A   Clear
7:15 AM 60.8 °F 55.4 °F 82% 29.91 in 10.0 mi Calm Calm - N/A   Clear
7:35 AM 60.8 °F 55.4 °F 82% 29.91 in 10.0 mi Calm Calm - N/A   Clear
7:55 AM 60.8 °F 55.4 °F 82% 29.92 in 10.0 mi South 3.5 mph - N/A   Clear
8:15 AM 62.6 °F 57.2 °F 82% 29.92 in 10.0 mi Calm Calm - N/A   Clear
8:35 AM 62.6 °F 57.2 °F 82% 29.92 in 10.0 mi South 3.5 mph - N/A   Clear
8:55 AM 64.4 °F 57.2 °F 77% 29.92 in 10.0 mi SSE 8.1 mph - N/A   Clear
9:15 AM 68.0 °F 59.0 °F 73% 29.92 in 10.0 mi SSE 6.9 mph - N/A   Clear
9:35 AM 68.0 °F 59.0 °F 73% 29.91 in 10.0 mi SE 12.7 mph 17.3 mph N/A   Clear
9:55 AM 68.0 °F 57.2 °F 68% 29.91 in 10.0 mi SSE 10.4 mph - N/A   Clear
10:15 AM 69.8 °F 59.0 °F 68% 29.91 in 10.0 mi SSE 9.2 mph - N/A   Clear
10:35 AM 71.6 °F 59.0 °F 64% 29.91 in 10.0 mi SSE 6.9 mph 16.1 mph N/A   Clear
10:55 AM 71.6 °F 59.0 °F 64% 29.90 in 10.0 mi SSE 11.5 mph 18.4 mph N/A   Clear
11:15 AM 73.4 °F 57.2 °F 57% 29.90 in 10.0 mi South 9.2 mph 20.7 mph N/A   Clear
11:35 AM 73.4 °F 57.2 °F 57% 29.90 in 10.0 mi South 13.8 mph 20.7 mph N/A   Clear
11:55 AM 73.4 °F 59.0 °F 61% 29.89 in 10.0 mi SSE 12.7 mph 16.1 mph N/A   Scattered Clouds
12:15 PM 73.4 °F 59.0 °F 61% 29.88 in 10.0 mi SSE 11.5 mph 20.7 mph N/A   Scattered Clouds
12:35 PM 75.2 °F 59.0 °F 57% 29.87 in 10.0 mi SSE 10.4 mph 21.9 mph N/A   Mostly Cloudy
1:15 PM 73.4 °F 59.0 °F 61% 29.85 in 10.0 mi SSE 12.7 mph 21.9 mph N/A   Overcast
1:35 PM 73.4 °F 59.0 °F 61% 29.84 in 10.0 mi South 6.9 mph 16.1 mph N/A   Overcast
1:55 PM 75.2 °F 59.0 °F 57% 29.82 in 10.0 mi South 6.9 mph 16.1 mph N/A   Mostly Cloudy
2:15 PM 77.0 °F 59.0 °F 54% 29.80 in 10.0 mi SSE 8.1 mph 17.3 mph N/A   Mostly Cloudy
2:35 PM 77.0 °F 59.0 °F 54% 29.78 in 10.0 mi SE 12.7 mph 18.4 mph N/A   Overcast
2:55 PM 78.8 °F 60.8 °F 54% 29.76 in 10.0 mi SSE 13.8 mph 20.7 mph N/A   Overcast
3:15 PM 78.8 °F 60.8 °F 54% 29.75 in 10.0 mi South 12.7 mph 18.4 mph N/A   Overcast
3:35 PM 77.0 °F 60.8 °F 57% 29.74 in 10.0 mi SSE 10.4 mph - N/A   Overcast
3:55 PM 77.0 °F 60.8 °F 57% 29.72 in 10.0 mi South 12.7 mph 26.5 mph 0.01 in   Mostly Cloudy
4:15 PM 77.0 °F 62.6 °F 61% 29.72 in 10.0 mi SSE 9.2 mph 23.0 mph N/A   Mostly Cloudy
4:35 PM 75.2 °F 62.6 °F 65% 29.72 in 10.0 mi South 12.7 mph 19.6 mph N/A   Mostly Cloudy
4:55 PM 75.2 °F 62.6 °F 65% 29.70 in 10.0 mi South 8.1 mph - N/A   Mostly Cloudy
5:15 PM 75.2 °F 62.6 °F 65% 29.69 in 10.0 mi South 6.9 mph - N/A   Mostly Cloudy
5:35 PM 75.2 °F 62.6 °F 65% 29.68 in 10.0 mi SSE 4.6 mph - N/A   Overcast
5:55 PM 75.2 °F 62.6 °F 65% 29.66 in 10.0 mi SSE 6.9 mph - N/A   Overcast
6:15 PM 75.2 °F 62.6 °F 65% 29.66 in 10.0 mi SSE 4.6 mph - N/A   Mostly Cloudy
6:35 PM 73.4 °F 62.6 °F 69% 29.66 in 7.0 mi South 3.5 mph - N/A Rain Light Rain
6:55 PM 73.4 °F 64.4 °F 73% 29.66 in 10.0 mi Calm Calm - N/A Rain , Thunderstorm Light Thunderstorms and Rain
7:15 PM 69.8 °F 64.4 °F 83% 29.66 in 7.0 mi Calm Calm - N/A Rain , Thunderstorm Light Thunderstorms and Rain
7:35 PM - - N/A% 29.69 in - WSW 12.7 mph - N/A Thunderstorm Thunderstorm
7:55 PM 64.4 °F 62.6 °F 94% 29.67 in 10.0 mi South 5.8 mph - N/A Thunderstorm Mostly Cloudy
8:15 PM 62.6 °F 62.6 °F 100% 29.67 in 10.0 mi Calm Calm - N/A Rain , Thunderstorm Light Thunderstorms and Rain
8:35 PM 62.6 °F 62.6 °F 100% 29.69 in 7.0 mi WSW 5.8 mph - N/A Rain , Thunderstorm Rain
8:55 PM 62.6 °F 62.6 °F 100% 29.73 in 3.0 mi WSW 3.5 mph - N/A Rain , Thunderstorm Rain
9:15 PM 62.6 °F 62.6 °F 100% 29.72 in 5.0 mi Calm Calm - 0.01 in Rain , Thunderstorm Light Thunderstorms and Rain
9:35 PM 62.6 °F 62.6 °F 100% 29.72 in 7.0 mi Calm Calm - 0.01 in Rain , Thunderstorm Rain
9:55 PM 62.6 °F 62.6 °F 100% 29.73 in 5.0 mi Calm Calm - 0.02 in Rain , Thunderstorm Thunderstorms and Rain
10:15 PM 62.6 °F 62.6 °F 100% 29.73 in 10.0 mi SE 4.6 mph - N/A Rain Light Rain
10:35 PM 62.6 °F 62.6 °F 100% 29.72 in 4.0 mi Calm Calm - 0.01 in Rain Rain
10:55 PM 62.6 °F 62.6 °F 100% 29.72 in 10.0 mi South 3.5 mph - 0.01 in Rain Rain
11:15 PM 62.6 °F 62.6 °F 100% 29.71 in 7.0 mi SE 8.1 mph - N/A Rain Rain
11:35 PM 62.6 °F 62.6 °F 100% 29.70 in 10.0 mi SE 11.5 mph - N/A Rain Rain
11:55 PM 62.6 °F 62.6 °F 100% 29.65 in 10.0 mi SE 10.4 mph 13.8 mph N/A Rain Light Rain